Regional Weather Roundup
Issued by NWS

Home | Current Version | Previous Version | Graphics & Text | Print | Product List | Glossary On
Versions: 1 2 3 4 5 6 7 8 9 10 11 12 13 14 15 16 17 18 19 20 21 22 23 24 25 26 27 28 29 30 31 32 33 34 35 36 37 38 39 40 41 42 43 44 45 46 47 48 49 50
000
ASUS45 KABQ 252010
RWRNM
WEATHER ROUNDUP FOR NEW MEXICO
NATIONAL WEATHER SERVICE ALBUQUERQUE NM
100 PM MST TUE NOV 25 2014

NOTE: "FAIR" MEANS FEW OR NO CLOUDS BELOW 12,000 FEET AGL WITH NO
       SIGNIFICANT WEATHER OR OBSTRUCTIONS TO VISION.

      THIS PRODUCT IS RELEASED AS TWO VERSIONS.  ONE VERSION NEAR
      THE TOP OF THE HOUR CONTAINING PRELIMINARY DATA FROM ALBUQUERQUE
      AND OTHER STATIONS.  A FINAL VERSION WITH ADDITIONAL DATA IS
      ISSUED ABOUT 10 MINUTES AFTER THE HOUR.

NMZ501-503-504-510>518-252100-
NORTHWEST PLATEAU/NORTHCENTRAL MOUNTAINS

CITY           SKY/WX    TMP DP  RH WIND       PRES   REMARKS
FARMINGTON     MOSUNNY   43   4  19 W22       30.32F
LOS ALAMOS     SUNNY     32   5  31 NE3       30.27F
SANTA FE       SUNNY     40   3  21 N8        30.25F WCI  34
TAOS           SUNNY     32  10  40 SW9       30.27S WCI  24
ANGEL FIRE     FAIR      24   9  51 W28G36    30.16F HAZE    WCI   8

$$
NMZ402-403-502-505>509-252100-
WESTCENTRAL MOUNTAINS/SOUTHWEST MOUNTAINS

CITY           SKY/WX    TMP DP  RH WIND       PRES   REMARKS
GALLUP         SUNNY     45   2  17 SW14G21   30.35F
GRANTS         SUNNY     50  -2  11 NW20G25   30.31F
SILVER CITY    SUNNY     48  -8   9 SW7       30.38F

$$
NMZ407-409-411-412-252100-
SOUTHERN DESERTS

CITY           SKY/WX    TMP DP  RH WIND       PRES   REMARKS
LORDSBURG      FAIR      50   1  13 CALM      30.38F
DEMING         SUNNY     51   3  14 SW12      30.37F
LAS CRUCES     SUNNY     51   4  14 SW9G16    30.37F
HOLLOMAN AFB   SUNNY     49   8  19 VRB3      30.34F
ALAMOGORDO     SUNNY     50   5  16 N7        30.36F
T OR C         SUNNY     48  -3  12 S8        30.33F

$$
NMZ519>523-252100-
CENTRAL VALLEYS/CENTRAL HIGHLANDS

CITY           SKY/WX    TMP DP  RH WIND       PRES   REMARKS
ALBUQUERQUE    MOSUNNY   43   8  23 NE3       30.31F
DOUBLE EAGLE   MOSUNNY   39   3  22 W6        30.31F WCI  35
MORIARTY ARPT  FAIR      44   3  18 W24       30.25F
CLINES CORNERS SUNNY     39   2  21 W36G47    30.15F WCI  26
BELEN          FAIR      46   4  18 CALM      30.31F
SOCORRO        FAIR      47   3  16 S9G17     30.33F

$$
NMZ524>526-539-540-252100-
SOUTHCENTRAL MOUNTAINS

CITY           SKY/WX    TMP DP  RH WIND       PRES   REMARKS
RUIDOSO        SUNNY     45 -11   9 NW21G36   30.24F

$$
NMZ527>531-252100-
NORTHEAST HIGHLANDS/NORTHEAST PLAINS

CITY           SKY/WX    TMP DP  RH WIND       PRES   REMARKS
LAS VEGAS      MOSUNNY   44   5  20 VRB3      30.07F
RATON          MOSUNNY   41  12  30 CALM      30.02F
CLAYTON        CLOUDY    52   5  15 W17       29.98F

$$
NMZ532>537-252100-
EASTCENTRAL PLAINS

CITY           SKY/WX    TMP DP  RH WIND       PRES   REMARKS
TUCUMCARI      SUNNY     53   9  17 W24G31    30.04F
CANNON AFB     SUNNY     51   5  15 W25G39    30.11F
CLOVIS AIRPORT SUNNY     52  10  19 W25G38    30.12F

$$
NMZ028-029-538-252100-
SOUTHEAST PLAINS

CITY           SKY/WX    TMP DP  RH WIND       PRES   REMARKS
ROSWELL        SUNNY     56  11  16 SW12G21   30.23F
CARLSBAD       SUNNY     58   7  13 SW13G21   30.24F
HOBBS          SUNNY     52  14  22 SW16      30.26F


$$


USA.gov is the U.S. government's official web portal to all federal, state and local government web resources and services.